K5RG-3 Weather Reports


time (UTC)temp
C
wind
direction
speed
KPH
gust
KPH
rain 1hr
cm
rain 24hr
cm
rain mn
cm
humidity
%
barometer
mb
20260504191554 26 94 1.6 8.0 0.00 0.00 0.00 64 1012.3
20260504190113 26 117 0.0 11.3 0.00 0.00 0.00 65 1012.3
20260504184600 26 131 1.6 6.4 0.00 0.00 0.00 64 1012.3
20260504183050 26 169 3.2 12.9 0.00 0.00 0.00 64 1012.5
20260504181547 26 152 1.6 14.5 0.00 0.00 0.00 67 1012.8
20260504180047 26 136 1.6 6.4 0.00 0.00 0.00 63 1012.8
20260504174545 26 224 1.6 12.9 0.00 0.00 0.00 65 1012.9
20260504173048 25 219 1.6 17.7 0.00 0.00 0.00 65 1013.3
20260504171538 25 153 3.2 8.0 0.00 0.00 0.00 64 1013.4
20260504081514 17 236 0.0 0.0 0.00 0.00 0.00 76 1014.7
20260504060104 18 236 0.0 0.0 0.00 0.00 0.00 72 1016.3
20260504044600 17 236 0.0 0.0 0.00 0.00 0.00 74 1016.8
20260504043050 17 236 0.0 0.0 0.00 0.00 0.00 73 1016.9
20260504041550 17 236 0.0 0.0 0.00 0.00 0.00 72 1016.8
20260504040049 18 236 0.0 0.0 0.00 0.00 0.00 70 1016.8
20260504034554 18 236 0.0 0.0 0.00 0.00 0.00 68 1016.9
20260504033055 19 236 0.0 0.0 0.00 0.00 0.00 67 1016.8
20260504031549 19 236 0.0 0.0 0.00 0.00 0.00 66 1016.7
20260504030047 20 236 0.0 0.0 0.00 0.00 0.00 68 1016.7
20260504024548 20 236 0.0 0.0 0.00 0.00 0.00 65 1016.8
20260504023047 20 236 0.0 0.0 0.00 0.00 0.00 65 1016.7
20260504021546 20 236 0.0 0.0 0.00 0.00 0.00 64 1016.7
20260504020045 20 236 0.0 0.0 0.00 0.00 0.00 62 1016.7
20260504014548 21 236 0.0 0.0 0.00 0.00 0.00 61 1016.6
20260504013049 21 236 0.0 0.0 0.00 0.00 0.00 59 1016.8
20260504011548 21 95 0.0 0.0 0.00 0.00 0.00 58 1016.5
20260504010053 21 86 0.0 0.0 0.00 0.00 0.00 57 1016.5
20260504004544 22 81 0.0 1.6 0.00 0.00 0.00 55 1016.5
20260504003043 22 69 0.0 1.6 0.00 0.00 0.00 55 1016.4
20260504001601 22 117 0.0 3.2 0.00 0.00 0.00 53 1016.5
20260504000043 23 108 0.0 1.6 0.00 0.00 0.00 51 1016.4
20260503234539 23 121 0.0 3.2 0.00 0.00 0.00 49 1016.7
20260503233038 23 198 0.0 3.2 0.00 0.00 0.00 50 1016.8
20260503231538 23 115 0.0 3.2 0.00 0.00 0.00 49 1016.8
20260503230036 24 115 0.0 4.8 0.00 0.00 0.00 47 1016.9
20260503224537 24 163 0.0 3.2 0.00 0.00 0.00 48 1017.0
20260503223034 25 151 0.0 3.2 0.00 0.00 0.00 46 1017.3
20260503221540 25 200 0.0 3.2 0.00 0.00 0.00 44 1017.1
20260503220040 25 171 0.0 3.2 0.00 0.00 0.00 46 1017.2
20260503214530 25 143 0.0 3.2 0.00 0.00 0.00 45 1017.6
20260503213037 25 146 0.0 3.2 0.00 0.00 0.00 43 1017.7
20260503211528 25 274 3.2 6.4 0.00 0.00 0.00 44 1017.8
20260503210026 25 160 0.0 1.6 0.00 0.00 0.00 44 1018.1
20260503204526 25 79 0.0 6.4 0.00 0.00 0.00 43 1018.2
20260503203022 25 94 3.2 16.1 0.00 0.00 0.00 42 1018.5
20260503201528 25 322 0.0 14.5 0.00 0.00 0.00 42 1018.7
20260503200029 25 81 0.0 11.3 0.00 0.00 0.00 46 1018.8
20260503194526 25 129 1.6 16.1 0.00 0.00 0.00 44 1019.0
20260503193019 25 127 1.6 9.7 0.00 0.00 0.00 42 1019.4